EW9119 Weather Reports


time (UTC)temp
C
wind
direction
speed
KPH
gust
KPH
rain 1hr
cm
rain 24hr
cm
rain mn
cm
humidity
%
barometer
mb
20260831213049 32 317 0.0 0.0 0.00 0.00 0.00 50 1015.4
20260831211544 32 315 0.0 0.0 0.00 0.00 0.00 47 1015.4
20260831210040 32 322 0.0 0.0 0.00 0.00 0.00 48 1015.4
20260831204536 32 321 0.0 0.0 0.00 0.00 0.00 49 1015.6
20260831203031 32 315 0.0 0.0 0.00 0.00 0.00 51 1015.8
20260831201529 32 342 0.0 0.0 0.00 0.00 0.00 52 1015.8
20260831200022 32 313 0.0 0.0 0.00 0.00 0.00 52 1015.8
20260831194518 32 303 0.0 0.0 0.00 0.00 0.00 53 1016.0
20260831193022 32 286 0.0 0.0 0.00 0.00 0.00 55 1016.2
20260831191510 31 292 0.0 0.0 0.00 0.00 0.00 60 1016.2
20260831190010 31 126 0.0 0.0 0.00 0.00 0.00 57 1016.3
20260831184502 31 162 0.0 0.0 0.00 0.00 0.00 56 1016.5
20260831183106 30 139 0.0 0.0 0.00 0.00 0.00 59 1016.6
20260831181552 31 193 0.0 0.0 0.00 0.00 0.00 60 1016.8
20260831180106 32 109 0.0 0.0 0.00 0.00 0.00 56 1016.8
20260831174545 33 276 0.0 0.0 0.00 0.00 0.00 54 1017.1
20260831173038 31 296 0.0 0.0 0.00 0.00 0.00 59 1017.2
20260831171534 32 319 0.0 0.0 0.00 0.00 0.00 59 1017.1
20260831170038 31 106 0.0 0.0 0.00 0.00 0.00 57 1017.2
20260831164526 32 297 0.0 0.0 0.00 0.00 0.00 59 1017.4
20260831163021 31 279 0.0 0.0 0.00 0.00 0.00 61 1017.6
20260831161515 31 308 0.0 0.0 0.00 0.00 0.00 60 1017.7
20260831160014 30 61 0.0 0.0 0.00 0.00 0.00 61 1017.8
20260831154521 31 28 0.0 0.0 0.00 0.00 0.00 62 1017.9
20260831153002 31 332 0.0 0.0 0.00 0.00 0.00 61 1017.9
20260831151610 30 308 0.0 1.6 0.00 0.00 0.00 63 1017.9
20260831150055 30 319 0.0 0.0 0.00 0.00 0.00 64 1018.2
20260831144550 29 317 0.0 0.0 0.00 0.00 0.00 66 1018.2
20260831143047 28 331 0.0 1.6 0.00 0.00 0.00 68 1018.2
20260831141542 28 300 0.0 0.0 0.00 0.00 0.00 68 1018.1
20260831140047 27 284 0.0 0.0 0.00 0.00 0.00 68 1018.1
20260831134537 26 308 0.0 0.0 0.00 0.00 0.00 68 1018.2
20260831133031 26 298 0.0 0.0 0.00 0.00 0.00 65 1018.4
20260831131523 26 325 0.0 0.0 0.00 0.00 0.00 59 1018.3
20260831130019 25 285 0.0 0.0 0.00 0.00 0.00 38 1018.6
20260831124519 23 314 0.0 0.0 0.00 0.00 0.00 1 1018.5
20260831123016 22 360 0.0 0.0 0.00 0.00 0.00 1 1018.3
20260831121505 21 355 0.0 0.0 0.00 0.00 0.00 1 1018.3
20260831120001 20 355 0.0 0.0 0.00 0.00 0.00 1 1018.4
20260831114558 20 355 0.0 0.0 0.00 0.00 0.00 1 1018.4
20260831113052 20 360 0.0 0.0 0.00 0.00 0.00 1 1018.3
20260831111553 20 104 0.0 0.0 0.00 0.00 0.00 1 1018.1
20260831110053 20 104 0.0 0.0 0.00 0.00 0.00 1 1018.1
20260831104601 20 104 0.0 0.0 0.00 0.00 0.00 1 1018.0
20260831103049 20 104 0.0 0.0 0.00 0.00 0.00 1 1017.9
20260831101548 20 104 0.0 0.0 0.00 0.00 0.00 1 1017.7
20260831100055 20 104 0.0 0.0 0.00 0.00 0.00 1 1017.6
20260831094541 20 104 0.0 0.0 0.00 0.00 0.00 1 1017.6
20260831093036 20 104 0.0 0.0 0.00 0.00 0.00 1 1017.6
20260831091530 20 104 0.0 0.0 0.00 0.00 0.00 1 1017.6
20260831090026 20 104 0.0 0.0 0.00 0.00 0.00 1 1017.6
20260831084534 20 104 0.0 0.0 0.00 0.00 0.00 1 1017.5
20260831083035 21 104 0.0 0.0 0.00 0.00 0.00 1 1017.6
20260831081514 21 104 0.0 0.0 0.00 0.00 0.00 1 1017.6
20260831080022 21 104 0.0 0.0 0.00 0.00 0.00 1 1017.5
20260831074510 21 104 0.0 0.0 0.00 0.00 0.00 1 1017.6
20260831073003 21 104 0.0 0.0 0.00 0.00 0.00 1 1017.6
20260831071557 21 104 0.0 0.0 0.00 0.00 0.00 1 1017.8
20260831070105 21 104 0.0 0.0 0.00 0.00 0.00 1 1017.8
20260831064549 21 104 0.0 0.0 0.00 0.00 0.00 1 1017.9
20260831063043 21 104 0.0 0.0 0.00 0.00 0.00 1 1017.9
20260831061540 21 104 0.0 0.0 0.00 0.00 0.00 1 1018.0
20260831060035 21 104 0.0 0.0 0.00 0.00 0.00 1 1017.9
20260831054532 21 104 0.0 0.0 0.00 0.00 0.00 1 1018.0
20260831053027 21 104 0.0 0.0 0.00 0.00 0.00 1 1018.0
20260831051523 21 104 0.0 0.0 0.00 0.00 0.00 1 1018.1
20260831050018 21 104 0.0 0.0 0.00 0.00 0.00 7 1018.1
20260831044520 21 104 0.0 0.0 0.00 0.00 0.00 12 1018.1
20260831043012 22 104 0.0 0.0 0.00 0.00 0.00 22 1018.2
20260831041510 22 104 0.0 0.0 0.00 0.00 0.00 23 1018.2
20260831040009 22 104 0.0 0.0 0.00 0.00 0.00 35 1018.1
20260831034502 22 104 0.0 0.0 0.00 0.00 0.00 37 1018.2
20260831033101 22 104 0.0 0.0 0.00 0.00 0.00 40 1018.3
20260831031554 22 104 0.0 0.0 0.00 0.00 0.00 46 1018.3
20260831030059 23 104 0.0 0.0 0.00 0.00 0.00 51 1018.4
20260831024546 23 104 0.0 0.0 0.00 0.00 0.00 55 1018.4
20260831023041 23 104 0.0 0.0 0.00 0.00 0.00 60 1018.5
20260831021639 23 104 0.0 0.0 0.00 0.00 0.00 63 1018.4
20260831020034 24 104 0.0 0.0 0.00 0.00 0.00 64 1018.3
20260831014532 24 104 0.0 0.0 0.00 0.00 0.00 65 1018.3
20260831013027 24 104 0.0 0.0 0.00 0.00 0.00 65 1018.1
20260831011521 25 104 0.0 0.0 0.00 0.00 0.00 66 1018.0
20260831010017 25 113 0.0 0.0 0.00 0.00 0.00 68 1017.6
20260831004513 25 111 0.0 0.0 0.00 0.00 0.00 69 1017.5
20260831003008 25 111 0.0 0.0 0.00 0.00 0.00 70 1017.4
20260831001506 26 111 0.0 0.0 0.00 0.00 0.00 70 1017.3
20260831000003 26 111 0.0 0.0 0.00 0.00 0.00 70 1017.4
20260830234559 27 111 0.0 0.0 0.00 0.00 0.00 69 1017.4
20260830233104 27 111 0.0 0.0 0.00 0.00 0.00 68 1017.4
20260830231555 27 111 0.0 0.0 0.00 0.00 0.00 68 1017.4
20260830230045 28 111 0.0 0.0 0.00 0.00 0.00 67 1017.3
20260830224600 28 94 0.0 0.0 0.00 0.00 0.00 66 1017.4
20260830223037 28 94 0.0 0.0 0.00 0.00 0.00 65 1017.2
20260830221532 28 95 0.0 0.0 0.00 0.00 0.00 64 1017.1
20260830220029 28 119 0.0 0.0 0.00 0.00 0.00 64 1017.1
20260830214534 28 317 0.0 0.0 0.00 0.00 0.00 63 1017.0